SCP
5 5 4 4 3 4 4 4 3 3 3 3 2 1 1 1 1 0 0 0 0 0 0 0 0 0 0 0 0 0 1 1 1 1 1 0 0 0 0 0 0 0 0
5 5 5 5 5 6 6 5 4 3 3 2 2 1 1 1 1 0 0 0 0 0 0 0 0 0 0 0 0 0 0 0 1 1 1 0 0 0 0 0 0 0 0
4 5 6 6 7 8 7 5 3 3 2 2 1 1 1 1 1 1 0 0 0 0 0 0 0 0 0 1 1 1 0 0 0 1 1 1 0 1 1 0 0 0 0
4 5 5 6 7 7 6 4 3 2 2 2 1 1 1 1 1 1 0 0 0 0 0 0 0 1 1 1 1 1 1 0 0 0 0 1 1 1 1 0 0 0 0
5 5 5 5 5 5 4 3 3 2 2 2 1 1 1 1 1 1 0 1 1 0 0 1 1 1 1 1 1 1 1 1 1 1 0 1 1 1 1 0 0 0 0
5 6 5 4 4 4 4 3 3 2 2 2 2 1 1 1 1 1 1 1 1 0 0 1 1 1 1 1 1 1 1 1 1 1 1 1 1 1 1 1 0 0 0
5 6 5 5 5 5 4 3 3 2 2 2 2 2 1 1 1 1 0 0 0 0 0 1 1 1 1 1 1 1 2 2 1 1 1 1 1 1 1 1 1 0 0
5 5 5 5 5 6 5 4 3 3 2 2 2 2 2 1 1 1 0 0 0 0 0 0 1 1 1 1 1 1 2 2 2 2 2 1 1 1 1 1 1 0 0
5 5 5 5 6 7 7 5 4 3 3 2 2 2 2 1 1 1 1 0 0 0 0 0 1 1 1 1 1 1 2 2 2 2 2 1 1 1 1 1 1 1 0
4 4 4 6 8 9 10 8 6 4 3 3 2 2 2 2 1 1 1 1 1 1 1 1 1 1 1 1 2 2 1 1 2 2 1 1 1 1 1 1 1 1 1
4 4 5 6 9 13 15 13 9 6 4 3 3 3 2 2 2 2 1 1 1 1 1 1 1 1 1 2 2 2 1 1 1 1 1 1 1 1 1 1 1 1 1
4 4 4 6 11 17 21 19 13 7 4 3 3 3 3 2 2 2 2 2 2 2 1 1 1 1 2 2 2 2 2 2 1 1 1 1 1 1 1 1 1 1 1
5 4 4 6 12 19 24 21 14 7 5 4 3 3 3 3 3 3 3 3 3 3 3 3 2 2 2 2 2 2 2 2 2 1 1 1 1 1 1 1 1 1 1
5 5 4 5 10 17 22 20 14 9 6 4 4 4 4 4 4 4 4 4 4 4 5 4 3 3 2 2 2 2 1 1 1 1 1 1 1 1 1 1 1 1 1
6 5 4 5 10 17 20 19 15 10 6 4 3 3 3 4 4 4 4 4 4 4 4 4 3 3 2 2 1 1 1 1 1 1 1 1 1 1 1 1 1 1 1
5 5 5 6 10 16 18 16 13 9 5 3 2 2 2 3 3 3 4 4 4 3 3 3 3 2 2 1 1 1 1 1 1 1 1 1 1 1 1 1 1 1 1
4 5 6 6 7 9 10 9 7 5 3 2 2 2 2 2 3 3 3 3 3 3 3 2 2 1 1 1 1 1 1 1 1 1 1 1 1 1 1 1 1 1 1
4 5 5 4 4 4 4 4 3 3 2 2 2 2 3 3 3 3 3 3 3 3 2 2 1 1 1 1 0 0 0 1 1 1 0 0 0 0 0 0 0 0 0
5 5 5 5 4 3 2 3 3 3 3 3 3 3 3 3 3 3 4 4 3 3 2 2 1 1 1 1 0 0 0 0 0 0 0 0 0 0 0 0 0 0 0
7 6 6 6 5 4 3 4 4 3 3 3 4 4 4 5 5 5 4 4 3 2 1 1 1 2 2 1 0 0 0 0 0 0 0 0 0 0 0 0 0 0 0
6 6 5 5 5 4 4 5 5 5 5 6 6 6 6 7 6 5 3 3 2 1 1 1 1 1 1 1 1 0 0 0 0 0 0 0 0 0 0 0 0 0 0
4 5 5 5 5 4 5 6 7 8 8 8 8 7 6 6 5 3 2 2 1 1 1 1 1 1 1 1 1 0 0 0 0 0 0 0 0 0 0 0 0 0 0
4 5 6 6 5 4 5 7 8 9 9 9 7 5 4 4 3 2 2 1 1 1 1 1 1 1 1 1 1 0 0 0 0 0 0 0 0 0 0 0 0 0 0
6 7 8 7 5 4 5 6 7 7 7 6 4 3 3 3 2 2 1 1 1 1 1 1 1 1 1 1 1 0 0 0 0 0 0 0 0 0 0 0 0 0 0
7 7 7 5 4 3 4 4 4 4 3 3 2 2 2 2 2 1 1 0 0 0 0 0 0 0 0 1 1 0 0 0 0 0 0 0 0 0 0 0 0 0 0
7 7 5 3 2 2 3 3 2 2 1 2 2 2 2 2 1 1 0 0 0 0 0 0 0 0 0 0 0 0 0 0 0 0 0 0 0 0 0 0 0 0 0
Wind_Speed
6 6 7 7 6 4 4 3 2 1 1 1 1 1 1 1 1 1 1 1 1 1 1 1 1 1 1 1 1 1 0 0 0 1 1 2 1 1 1 1 1 2 3
6 6 6 6 5 5 4 3 2 1 1 1 1 1 1 0 0 1 1 1 1 1 1 2 1 1 1 1 1 1 1 0 1 1 1 2 3 2 1 1 2 2 2
10 8 7 6 6 5 5 4 2 2 1 2 2 2 2 2 2 1 1 1 1 1 1 1 1 1 1 1 1 1 2 0 1 1 2 2 2 2 2 1 1 1 2
8 8 7 6 6 5 4 4 3 2 2 2 3 3 2 1 1 1 1 1 1 1 2 1 2 1 1 1 1 1 1 1 0 1 1 2 2 1 2 2 1 1 2
9 9 9 8 7 6 5 4 3 3 3 3 3 3 2 1 0 1 1 1 1 1 1 1 1 1 1 1 0 1 1 1 1 1 1 1 0 1 1 2 3 2 2
9 8 7 7 6 5 5 5 4 3 3 3 3 3 2 2 1 1 1 1 1 1 1 1 1 1 0 0 1 1 1 1 1 0 0 1 1 1 1 2 2 2 2
8 7 8 8 7 7 6 5 5 3 2 3 2 2 2 2 2 1 0 0 1 1 1 1 0 0 0 0 0 1 0 1 1 1 0 1 1 1 1 1 1 1 2
7 7 8 8 8 8 7 6 5 4 3 3 2 2 2 1 1 1 1 1 0 1 0 0 0 0 0 0 1 0 0 0 0 0 0 0 1 0 1 2 1 1 2
8 7 7 7 8 8 7 7 7 5 4 3 3 2 2 1 1 1 1 1 0 0 0 1 0 1 0 1 1 1 1 1 0 0 0 0 1 1 0 1 2 2 1
6 6 6 6 6 6 6 6 6 5 4 4 3 3 2 2 2 1 1 1 0 0 1 0 0 1 1 1 1 0 1 1 1 1 1 1 1 1 1 0 0 1 2
7 6 5 5 5 5 6 6 5 4 4 3 2 2 2 2 1 1 1 1 0 0 0 0 0 0 0 1 1 1 1 1 1 1 1 1 1 1 1 0 0 1 1
6 6 5 4 4 5 5 5 5 5 4 4 3 2 1 1 1 1 1 1 0 0 0 1 1 1 1 1 1 1 1 1 1 2 1 2 1 1 1 1 1 1 1
6 5 5 5 5 5 5 5 5 5 4 3 3 2 1 1 1 1 1 0 0 0 1 1 1 2 2 1 1 0 1 1 1 1 1 1 1 2 2 1 1 1 1
6 6 5 5 5 5 5 5 5 4 4 3 3 2 1 2 2 1 1 1 1 0 1 1 1 1 1 1 1 1 1 1 1 1 1 1 1 1 2 1 1 1 1
5 6 6 5 4 4 4 4 3 3 4 4 3 2 1 1 1 1 1 1 1 1 1 1 1 0 1 1 1 1 1 1 1 2 1 1 2 2 1 1 1 0 0
7 7 6 6 5 5 5 4 3 3 3 3 2 1 1 1 1 1 1 1 1 1 1 1 1 1 1 3 3 2 1 1 1 1 2 2 2 3 4 4 2 1 1
7 7 7 6 5 5 6 5 4 4 4 3 2 2 1 1 1 1 1 1 1 1 2 1 1 1 2 3 3 3 1 1 1 1 1 2 3 3 2 3 4 3 2
7 7 6 5 4 4 4 4 3 3 3 3 2 1 2 2 1 1 1 1 1 1 1 1 1 1 2 4 3 3 1 1 1 1 1 1 2 3 2 1 2 3 3
6 6 6 6 5 4 4 4 3 3 2 2 2 2 2 2 1 1 1 1 1 1 1 1 1 1 2 3 3 2 1 1 2 2 1 1 1 4 3 1 2 3 4
5 5 5 5 5 4 5 5 3 3 2 2 2 2 2 2 2 2 1 1 2 2 1 1 0 1 1 2 3 2 1 1 2 2 2 2 2 3 2 1 0 2 4
5 6 6 5 4 4 5 5 3 3 3 2 1 1 1 2 2 2 1 1 1 1 1 1 0 0 1 2 2 2 0 0 1 1 2 2 3 3 3 2 1 2 3
6 6 6 4 3 4 5 4 3 2 2 2 1 1 1 2 2 2 1 1 1 1 1 0 1 1 2 2 2 2 1 1 1 2 2 2 3 3 3 2 3 3 2
6 5 6 5 3 3 5 4 3 2 2 2 1 1 1 1 1 2 1 1 1 1 1 1 1 2 2 2 3 3 3 2 1 2 3 3 5 4 3 4 5 3 1
4 4 5 4 3 3 3 3 3 2 2 2 1 1 0 1 1 0 1 1 1 2 2 2 2 2 2 2 2 2 2 2 2 2 4 4 4 3 3 4 3 2 1
4 4 5 5 4 3 2 2 3 3 2 2 1 1 1 1 1 1 1 2 3 4 4 3 3 2 2 4 3 2 2 2 2 2 2 2 2 2 2 2 2 2 1
4 3 3 4 4 4 3 2 2 4 3 2 1 1 1 1 1 1 1 2 2 1 3 4 4 3 4 4 3 3 3 3 1 0 1 2 2 2 2 2 3 2 2
Wind_Direction
161 151 149 148 142 133 127 129 130 136 114 92 88 78 48 28 38 39 47 64 57 65 100 89 89 96 105 118 106 126 75 315 53 65 353 330 290 249 230 208 193 215 220
154 157 153 150 147 144 145 138 141 144 150 156 155 141 144 125 65 347 11 32 40 62 107 110 103 103 115 86 82 104 90 282 105 122 90 345 331 315 264 218 196 206 203
169 172 165 160 154 158 163 158 159 144 134 128 106 86 60 37 26 11 1 340 354 57 78 112 127 117 127 147 161 131 132 191 291 137 133 155 243 300 312 260 233 213 205
169 174 169 163 167 171 167 159 154 139 118 110 110 118 109 106 257 264 319 332 358 58 76 81 103 116 112 130 167 132 143 140 218 297 209 195 178 172 310 323 302 266 229
177 179 177 171 172 170 166 162 148 144 136 128 130 122 111 124 346 17 33 358 351 26 66 83 86 91 105 138 159 106 120 147 168 201 239 248 229 162 169 278 308 312 273
179 180 174 161 163 163 163 156 147 152 148 133 129 131 130 119 87 30 26 359 354 360 16 75 84 102 111 146 206 148 144 164 158 170 159 164 178 221 186 223 270 289 290
173 171 169 165 167 167 166 160 157 156 150 140 141 147 149 147 150 176 184 17 3 347 321 19 51 58 232 219 136 123 132 165 148 176 211 203 213 202 177 184 246 279 296
164 170 175 168 167 170 166 159 157 154 150 146 142 143 146 144 166 175 165 174 214 260 303 46 74 313 11 43 66 73 200 63 125 123 170 202 271 215 172 178 184 278 305
164 164 162 163 164 168 169 165 163 161 162 164 155 152 152 143 153 155 135 139 204 207 78 68 29 337 8 48 79 47 355 10 347 295 305 312 290 325 258 180 167 173 250
146 154 149 156 166 166 162 157 158 163 167 169 170 160 173 172 162 141 144 171 235 41 84 56 343 334 14 47 65 23 343 8 319 301 350 333 299 308 301 217 226 184 192
152 148 148 151 158 152 153 154 152 148 156 167 165 152 159 163 155 154 192 191 190 137 112 173 100 355 35 66 75 338 358 342 308 309 315 296 292 302 295 276 255 245 192
150 146 142 146 149 152 150 152 155 162 171 167 155 161 165 157 156 183 217 177 144 178 154 72 45 19 27 40 63 314 328 313 300 305 322 311 320 314 298 287 270 252 223
149 145 142 154 159 162 158 157 162 169 166 149 149 159 171 171 181 191 200 130 126 65 53 75 57 32 26 20 9 312 306 315 309 311 321 320 351 340 329 328 317 292 307
156 150 152 165 163 160 156 157 166 169 155 141 142 152 198 203 204 193 174 167 157 107 41 63 82 65 56 42 8 14 1 355 349 344 329 325 323 309 302 313 303 315 348
156 159 159 165 159 152 148 148 152 160 149 139 144 172 204 194 182 182 189 176 139 100 102 85 75 66 72 44 29 334 0 11 353 350 341 349 6 7 1 357 310 328 17
168 167 158 156 159 159 154 148 147 150 138 138 160 174 171 175 189 204 187 152 111 99 87 92 98 40 33 25 24 30 347 339 337 334 335 335 350 3 9 12 17 60 156
168 168 165 168 172 167 159 159 163 148 138 148 165 169 165 169 195 180 126 142 142 113 97 74 54 31 11 23 27 35 42 333 307 286 307 331 348 3 353 350 2 353 328
162 167 168 167 166 159 154 151 139 131 139 146 158 174 167 185 191 145 141 160 151 141 127 88 63 46 8 16 24 30 46 18 339 311 270 292 325 341 350 350 355 339 328
161 160 160 156 148 150 148 131 124 125 131 151 173 188 177 174 163 158 174 169 142 139 141 132 123 90 343 2 16 34 28 14 346 342 343 334 303 328 360 33 355 339 330
138 134 130 122 131 147 138 126 129 131 156 186 194 197 182 167 169 172 160 154 146 154 132 95 112 159 281 337 12 28 48 13 342 335 326 334 337 339 358 18 349 321 310
135 131 126 129 144 144 132 133 143 177 198 179 158 159 171 172 168 150 139 135 128 116 97 92 345 301 288 320 351 6 88 240 287 308 310 309 330 327 325 320 254 268 293
128 132 130 131 136 135 134 141 175 199 165 139 136 169 204 198 153 141 149 150 136 123 138 164 301 299 301 318 326 334 299 271 221 260 278 294 320 321 317 307 297 301 318
135 135 136 136 143 144 145 158 198 174 140 128 164 234 240 226 166 153 167 170 170 169 196 200 237 274 291 302 313 319 316 309 273 272 291 307 313 313 309 304 304 307 302
135 137 135 141 162 172 169 178 184 158 140 156 207 220 210 260 278 203 184 184 198 199 202 204 220 250 281 293 302 306 305 315 309 304 307 311 312 309 303 313 318 304 261
146 150 151 158 170 166 170 182 171 149 150 172 195 224 218 213 244 254 234 212 221 209 197 201 201 202 249 261 250 240 264 268 270 299 322 334 333 328 326 319 306 298 302
152 152 159 166 170 168 173 181 169 156 154 163 193 210 219 219 212 229 309 322 246 239 210 207 202 219 228 248 258 258 264 271 274 73 301 303 300 291 291 296 301 295 279